owner,sensor,date,latitude,longitude,vertical_datum,sea_water_practical_salinity,qcFlag 
SCCF RECON,ioos:station:SCCF:53:1,2009-12-01T00:00:00Z,26.6493,-81.8810,2.28,17.89,1111122 
SCCF RECON,ioos:station:SCCF:53:1,2009-12-01T01:00:00Z,26.6493,-81.8810,2.29,18.06,1111122 
SCCF RECON,ioos:station:SCCF:53:1,2009-12-01T02:00:00Z,26.6493,-81.8810,2.34,18.15,1111122 
SCCF RECON,ioos:station:SCCF:53:1,2009-12-01T03:00:00Z,26.6493,-81.8810,2.4,18.22,1111122 
SCCF RECON,ioos:station:SCCF:53:1,2009-12-01T04:00:00Z,26.6493,-81.8810,2.46,18.4,1111122 
SCCF RECON,ioos:station:SCCF:53:1,2009-12-01T05:00:00Z,26.6493,-81.8810,2.51,18.54,1111122 
SCCF RECON,ioos:station:SCCF:53:1,2009-12-01T06:00:00Z,26.6493,-81.8810,2.55,18.9,1111122 
SCCF RECON,ioos:station:SCCF:53:1,2009-12-01T07:00:00Z,26.6493,-81.8810,2.55,19.38,1111122 
SCCF RECON,ioos:station:SCCF:53:1,2009-12-01T08:00:00Z,26.6493,-81.8810,2.488,18.62,1111122 
SCCF RECON,ioos:station:SCCF:53:1,2009-12-01T09:00:00Z,26.6493,-81.8810,2.42,18.33,1111122 
SCCF RECON,ioos:station:SCCF:53:1,2009-12-01T10:00:00Z,26.6493,-81.8810,2.36,18.16,1111122 
SCCF RECON,ioos:station:SCCF:53:1,2009-12-01T11:00:00Z,26.6493,-81.8810,2.29,18.12,1111122 
SCCF RECON,ioos:station:SCCF:53:1,2009-12-01T12:00:00Z,26.6493,-81.8810,2.23,17.53,1111122 
SCCF RECON,ioos:station:SCCF:53:1,2009-12-01T13:00:00Z,26.6493,-81.8810,2.17,18.02,1111122 
SCCF RECON,ioos:station:SCCF:53:1,2009-12-01T14:00:00Z,26.6493,-81.8810,2.11,17.97,1111122 
SCCF RECON,ioos:station:SCCF:53:1,2009-12-01T15:00:00Z,26.6493,-81.8810,2.07,18.16,1111122 
SCCF RECON,ioos:station:SCCF:53:1,2009-12-01T16:00:00Z,26.6493,-81.8810,2.06,18.79,1111122 
SCCF RECON,ioos:station:SCCF:53:1,2009-12-01T17:00:00Z,26.6493,-81.8810,2.095,18.64,1111122 
SCCF RECON,ioos:station:SCCF:53:1,2009-12-01T18:00:00Z,26.6493,-81.8810,2.144,18.7,1111122 
SCCF RECON,ioos:station:SCCF:53:1,2009-12-01T19:00:00Z,26.6493,-81.8810,2.191,18.54,1111122 
SCCF RECON,ioos:station:SCCF:53:1,2009-12-01T20:00:00Z,26.6493,-81.8810,2.243,18.92,1111122 
SCCF RECON,ioos:station:SCCF:53:1,2009-12-01T21:00:00Z,26.6493,-81.8810,2.27,19.31,1111122 
SCCF RECON,ioos:station:SCCF:53:1,2009-12-01T22:00:00Z,26.6493,-81.8810,2.268,18.61,1111122 
SCCF RECON,ioos:station:SCCF:53:1,2009-12-01T23:00:00Z,26.6493,-81.8810,2.249,18.43,1111122 
SCCF RECON,ioos:station:SCCF:53:1,2009-12-02T00:00:00Z,26.6493,-81.8810,2.23,18.23,1111122 
SCCF RECON,ioos:station:SCCF:53:1,2009-12-02T01:00:00Z,26.6493,-81.8810,2.23,18.74,1111122 
SCCF RECON,ioos:station:SCCF:53:1,2009-12-02T02:00:00Z,26.6493,-81.8810,2.289,18.92,1111122 
SCCF RECON,ioos:station:SCCF:53:1,2009-12-02T03:00:00Z,26.6493,-81.8810,2.36,19.2,1111122 
SCCF RECON,ioos:station:SCCF:53:1,2009-12-02T04:00:00Z,26.6493,-81.8810,2.42,19.28,1111122 
SCCF RECON,ioos:station:SCCF:53:1,2009-12-02T05:00:00Z,26.6493,-81.8810,2.49,19.3,1111122 
SCCF RECON,ioos:station:SCCF:53:1,2009-12-02T06:00:00Z,26.6493,-81.8810,2.54,19.3,1111122 
SCCF RECON,ioos:station:SCCF:53:1,2009-12-02T07:00:00Z,26.6493,-81.8810,2.57,19.64,1111122 
SCCF RECON,ioos:station:SCCF:53:1,2009-12-02T08:00:00Z,26.6493,-81.8810,2.57,19.93,1111122 
SCCF RECON,ioos:station:SCCF:53:1,2009-12-02T09:00:00Z,26.6493,-81.8810,2.5,19.67,1111122 
SCCF RECON,ioos:station:SCCF:53:1,2009-12-02T10:00:00Z,26.6493,-81.8810,2.44,18.93,1111122 
SCCF RECON,ioos:station:SCCF:53:1,2009-12-02T11:00:00Z,26.6493,-81.8810,2.37,18.34,1111122 
SCCF RECON,ioos:station:SCCF:53:1,2009-12-02T12:00:00Z,26.6493,-81.8810,2.3,18.43,1111122 
SCCF RECON,ioos:station:SCCF:53:1,2009-12-02T13:00:00Z,26.6493,-81.8810,2.24,18.26,1111122 
SCCF RECON,ioos:station:SCCF:53:1,2009-12-02T14:00:00Z,26.6493,-81.8810,2.181,17.77,1111122 
SCCF RECON,ioos:station:SCCF:53:1,2009-12-02T15:00:00Z,26.6493,-81.8810,2.134,17.85,1111122 
SCCF RECON,ioos:station:SCCF:53:1,2009-12-02T16:00:00Z,26.6493,-81.8810,2.131,18.02,1111122 
SCCF RECON,ioos:station:SCCF:53:1,2009-12-02T17:00:00Z,26.6493,-81.8810,2.176,17.61,1111122 
SCCF RECON,ioos:station:SCCF:53:1,2009-12-02T18:00:00Z,26.6493,-81.8810,2.224,17.83,1111122 
SCCF RECON,ioos:station:SCCF:53:1,2009-12-02T19:00:00Z,26.6493,-81.8810,2.275,19.31,1111122 
SCCF RECON,ioos:station:SCCF:53:1,2009-12-02T20:00:00Z,26.6493,-81.8810,2.34,19.12,1111122 
SCCF RECON,ioos:station:SCCF:53:1,2009-12-02T21:00:00Z,26.6493,-81.8810,2.384,18.88,1111122 
SCCF RECON,ioos:station:SCCF:53:1,2009-12-02T22:00:00Z,26.6493,-81.8810,2.417,18.65,1111122 
SCCF RECON,ioos:station:SCCF:53:1,2009-12-02T23:00:00Z,26.6493,-81.8810,2.44,18.66,1111122 
SCCF RECON,ioos:station:SCCF:53:1,2009-12-03T00:00:00Z,26.6493,-81.8810,2.433,18.44,1111122 
SCCF RECON,ioos:station:SCCF:53:1,2009-12-03T01:00:00Z,26.6493,-81.8810,2.401,18.04,1111122 
SCCF RECON,ioos:station:SCCF:53:1,2009-12-03T02:00:00Z,26.6493,-81.8810,2.4,18.34,1111122 
SCCF RECON,ioos:station:SCCF:53:1,2009-12-03T03:00:00Z,26.6493,-81.8810,2.44,18.28,1111122 
SCCF RECON,ioos:station:SCCF:53:1,2009-12-03T04:00:00Z,26.6493,-81.8810,2.49,18.62,1111122 
SCCF RECON,ioos:station:SCCF:53:1,2009-12-03T05:00:00Z,26.6493,-81.8810,2.54,18.64,1111122 
SCCF RECON,ioos:station:SCCF:53:1,2009-12-03T06:00:00Z,26.6493,-81.8810,2.599,18.89,1111122 
SCCF RECON,ioos:station:SCCF:53:1,2009-12-03T07:00:00Z,26.6493,-81.8810,2.645,18.71,1111122 
SCCF RECON,ioos:station:SCCF:53:1,2009-12-03T08:00:00Z,26.6493,-81.8810,2.671,18.89,1111122 
SCCF RECON,ioos:station:SCCF:53:1,2009-12-03T09:00:00Z,26.6493,-81.8810,2.64,18.84,1111122 
SCCF RECON,ioos:station:SCCF:53:1,2009-12-03T10:00:00Z,26.6493,-81.8810,2.575,18.24,1111122 
SCCF RECON,ioos:station:SCCF:53:1,2009-12-03T11:00:00Z,26.6493,-81.8810,2.514,17.63,1111122 
SCCF RECON,ioos:station:SCCF:53:1,2009-12-03T12:00:00Z,26.6493,-81.8810,2.456,17.27,1111122 
SCCF RECON,ioos:station:SCCF:53:1,2009-12-03T13:00:00Z,26.6493,-81.8810,2.39,16.87,1111122 
SCCF RECON,ioos:station:SCCF:53:1,2009-12-03T14:00:00Z,26.6493,-81.8810,2.33,16.73,1111122 
SCCF RECON,ioos:station:SCCF:53:1,2009-12-03T15:00:00Z,26.6493,-81.8810,2.26,16.51,1111122 
SCCF RECON,ioos:station:SCCF:53:1,2009-12-03T16:00:00Z,26.6493,-81.8810,2.19,16.27,1111122 
SCCF RECON,ioos:station:SCCF:53:1,2009-12-03T17:00:00Z,26.6493,-81.8810,2.147,16.16,1111122 
SCCF RECON,ioos:station:SCCF:53:1,2009-12-03T18:00:00Z,26.6493,-81.8810,2.132,16.21,1111122 
SCCF RECON,ioos:station:SCCF:53:1,2009-12-03T19:00:00Z,26.6493,-81.8810,2.16,16.4,1111122 
SCCF RECON,ioos:station:SCCF:53:1,2009-12-03T20:00:00Z,26.6493,-81.8810,2.211,17.06,1111122 
SCCF RECON,ioos:station:SCCF:53:1,2009-12-03T21:00:00Z,26.6493,-81.8810,2.261,17.49,1111122 
SCCF RECON,ioos:station:SCCF:53:1,2009-12-03T22:00:00Z,26.6493,-81.8810,2.292,18.19,1111122 
SCCF RECON,ioos:station:SCCF:53:1,2009-12-03T23:00:00Z,26.6493,-81.8810,2.29,17.01,1111122 
SCCF RECON,ioos:station:SCCF:53:1,2009-12-04T00:00:00Z,26.6493,-81.8810,2.26,16.9,1111122 
SCCF RECON,ioos:station:SCCF:53:1,2009-12-04T01:00:00Z,26.6493,-81.8810,2.221,16.16,1111122 
SCCF RECON,ioos:station:SCCF:53:1,2009-12-04T02:00:00Z,26.6493,-81.8810,2.2,16.47,1111122 
SCCF RECON,ioos:station:SCCF:53:1,2009-12-04T03:00:00Z,26.6493,-81.8810,2.182,16.97,1111122 
SCCF RECON,ioos:station:SCCF:53:1,2009-12-04T04:00:00Z,26.6493,-81.8810,2.225,17.84,1111122 
SCCF RECON,ioos:station:SCCF:53:1,2009-12-04T05:00:00Z,26.6493,-81.8810,2.29,18.38,1111122 
SCCF RECON,ioos:station:SCCF:53:1,2009-12-04T06:00:00Z,26.6493,-81.8810,2.341,18.68,1111122 
SCCF RECON,ioos:station:SCCF:53:1,2009-12-04T07:00:00Z,26.6493,-81.8810,2.4,18.75,1111122 
SCCF RECON,ioos:station:SCCF:53:1,2009-12-04T08:00:00Z,26.6493,-81.8810,2.448,18.89,1111122 
SCCF RECON,ioos:station:SCCF:53:1,2009-12-04T09:00:00Z,26.6493,-81.8810,2.43,18.75,1111122 
SCCF RECON,ioos:station:SCCF:53:1,2009-12-04T10:00:00Z,26.6493,-81.8810,2.38,18.56,1111122 
SCCF RECON,ioos:station:SCCF:53:1,2009-12-04T11:00:00Z,26.6493,-81.8810,2.32,18.39,1111122 
SCCF RECON,ioos:station:SCCF:53:1,2009-12-04T12:00:00Z,26.6493,-81.8810,2.25,18.37,1111122 
SCCF RECON,ioos:station:SCCF:53:1,2009-12-04T13:00:00Z,26.6493,-81.8810,2.192,18.63,1111122 
SCCF RECON,ioos:station:SCCF:53:1,2009-12-04T14:00:00Z,26.6493,-81.8810,2.133,18.73,1111122 
SCCF RECON,ioos:station:SCCF:53:1,2009-12-04T15:00:00Z,26.6493,-81.8810,2.07,18.58,1111122 
SCCF RECON,ioos:station:SCCF:53:1,2009-12-04T16:00:00Z,26.6493,-81.8810,2.01,18.27,1111122 
SCCF RECON,ioos:station:SCCF:53:1,2009-12-04T17:00:00Z,26.6493,-81.8810,1.97,18.13,1111122 
SCCF RECON,ioos:station:SCCF:53:1,2009-12-04T18:00:00Z,26.6493,-81.8810,1.93,16.88,1111122 
SCCF RECON,ioos:station:SCCF:53:1,2009-12-04T19:00:00Z,26.6493,-81.8810,1.95,16.75,1111122 
SCCF RECON,ioos:station:SCCF:53:1,2009-12-04T20:00:00Z,26.6493,-81.8810,1.98,17.51,1111122 
SCCF RECON,ioos:station:SCCF:53:1,2009-12-04T21:00:00Z,26.6493,-81.8810,2.027,17.5,1111122 
SCCF RECON,ioos:station:SCCF:53:1,2009-12-04T22:00:00Z,26.6493,-81.8810,2.063,16.48,1111122 
SCCF RECON,ioos:station:SCCF:53:1,2009-12-04T23:00:00Z,26.6493,-81.8810,2.08,16.39,1111122 
SCCF RECON,ioos:station:SCCF:53:1,2009-12-05T00:00:00Z,26.6493,-81.8810,2.053,14.99,1111122 
SCCF RECON,ioos:station:SCCF:53:1,2009-12-05T01:00:00Z,26.6493,-81.8810,2.02,15.12,1111122 
SCCF RECON,ioos:station:SCCF:53:1,2009-12-05T02:00:00Z,26.6493,-81.8810,1.989,14.87,1111122 
SCCF RECON,ioos:station:SCCF:53:1,2009-12-05T03:00:00Z,26.6493,-81.8810,1.96,14.7,1111122 
SCCF RECON,ioos:station:SCCF:53:1,2009-12-05T04:00:00Z,26.6493,-81.8810,1.96,14.95,1111122 
SCCF RECON,ioos:station:SCCF:53:1,2009-12-05T05:00:00Z,26.6493,-81.8810,2.04,15.67,1111122 
SCCF RECON,ioos:station:SCCF:53:1,2009-12-05T06:00:00Z,26.6493,-81.8810,2.09,16.63,1111122 
SCCF RECON,ioos:station:SCCF:53:1,2009-12-05T07:00:00Z,26.6493,-81.8810,2.15,16.98,1111122 
SCCF RECON,ioos:station:SCCF:53:1,2009-12-05T08:00:00Z,26.6493,-81.8810,2.22,17.51,1111122 
SCCF RECON,ioos:station:SCCF:53:1,2009-12-05T09:00:00Z,26.6493,-81.8810,2.26,18.07,1111122 
SCCF RECON,ioos:station:SCCF:53:1,2009-12-05T10:00:00Z,26.6493,-81.8810,2.29,17.78,1111122 
SCCF RECON,ioos:station:SCCF:53:1,2009-12-05T11:00:00Z,26.6493,-81.8810,2.29,17.7,1111122 
SCCF RECON,ioos:station:SCCF:53:1,2009-12-05T12:00:00Z,26.6493,-81.8810,2.23,17.59,1111122 
SCCF RECON,ioos:station:SCCF:53:1,2009-12-05T13:00:00Z,26.6493,-81.8810,2.187,17.12,1111122 
SCCF RECON,ioos:station:SCCF:53:1,2009-12-05T14:00:00Z,26.6493,-81.8810,2.14,17.01,1111122 
SCCF RECON,ioos:station:SCCF:53:1,2009-12-05T15:00:00Z,26.6493,-81.8810,2.1,16.99,1111122 
SCCF RECON,ioos:station:SCCF:53:1,2009-12-05T16:00:00Z,26.6493,-81.8810,2.048,16.9,1111122 
SCCF RECON,ioos:station:SCCF:53:1,2009-12-05T17:00:00Z,26.6493,-81.8810,2.02,15.98,1111122 
SCCF RECON,ioos:station:SCCF:53:1,2009-12-05T18:00:00Z,26.6493,-81.8810,2.012,14.99,1111122 
SCCF RECON,ioos:station:SCCF:53:1,2009-12-05T19:00:00Z,26.6493,-81.8810,2.036,15.11,1111122 
SCCF RECON,ioos:station:SCCF:53:1,2009-12-05T20:00:00Z,26.6493,-81.8810,2.06,14.96,1111122 
SCCF RECON,ioos:station:SCCF:53:1,2009-12-05T21:00:00Z,26.6493,-81.8810,2.1,15.67,1111122 
SCCF RECON,ioos:station:SCCF:53:1,2009-12-05T22:00:00Z,26.6493,-81.8810,2.11,15.28,1111122 
SCCF RECON,ioos:station:SCCF:53:1,2009-12-05T23:00:00Z,26.6493,-81.8810,2.085,14.6,1111122 
SCCF RECON,ioos:station:SCCF:53:1,2009-12-06T00:00:00Z,26.6493,-81.8810,2.092,14.53,1111122 
SCCF RECON,ioos:station:SCCF:53:1,2009-12-06T01:00:00Z,26.6493,-81.8810,2.06,14.45,1111122 
SCCF RECON,ioos:station:SCCF:53:1,2009-12-06T02:00:00Z,26.6493,-81.8810,2.027,14.29,1111122 
SCCF RECON,ioos:station:SCCF:53:1,2009-12-06T03:00:00Z,26.6493,-81.8810,1.99,13.96,1111122 
SCCF RECON,ioos:station:SCCF:53:1,2009-12-06T04:00:00Z,26.6493,-81.8810,1.952,13.73,1111122 
SCCF RECON,ioos:station:SCCF:53:1,2009-12-06T05:00:00Z,26.6493,-81.8810,1.93,13.51,1111122 
SCCF RECON,ioos:station:SCCF:53:1,2009-12-06T06:00:00Z,26.6493,-81.8810,1.96,14.09,1111122 
SCCF RECON,ioos:station:SCCF:53:1,2009-12-06T07:00:00Z,26.6493,-81.8810,2.014,13.89,1111122 
SCCF RECON,ioos:station:SCCF:53:1,2009-12-06T08:00:00Z,26.6493,-81.8810,2.06,14.69,1111122 
SCCF RECON,ioos:station:SCCF:53:1,2009-12-06T09:00:00Z,26.6493,-81.8810,2.11,14.79,1111122 
SCCF RECON,ioos:station:SCCF:53:1,2009-12-06T10:00:00Z,26.6493,-81.8810,2.16,14.96,1111122 
SCCF RECON,ioos:station:SCCF:53:1,2009-12-06T11:00:00Z,26.6493,-81.8810,2.17,15.07,1111122 
SCCF RECON,ioos:station:SCCF:53:1,2009-12-06T12:00:00Z,26.6493,-81.8810,2.14,14.59,1111122 
SCCF RECON,ioos:station:SCCF:53:1,2009-12-06T13:00:00Z,26.6493,-81.8810,2.1,14.27,1111122 
SCCF RECON,ioos:station:SCCF:53:1,2009-12-06T14:00:00Z,26.6493,-81.8810,2.07,13.64,1111122 
SCCF RECON,ioos:station:SCCF:53:1,2009-12-06T15:00:00Z,26.6493,-81.8810,2.02,13.51,1111122 
SCCF RECON,ioos:station:SCCF:53:1,2009-12-06T16:00:00Z,26.6493,-81.8810,1.972,13.44,1111122 
SCCF RECON,ioos:station:SCCF:53:1,2009-12-06T17:00:00Z,26.6493,-81.8810,1.92,13.2,1111122 
SCCF RECON,ioos:station:SCCF:53:1,2009-12-06T18:00:00Z,26.6493,-81.8810,1.87,12.99,1111122 
SCCF RECON,ioos:station:SCCF:53:1,2009-12-06T19:00:00Z,26.6493,-81.8810,1.843,12.82,1111122 
SCCF RECON,ioos:station:SCCF:53:1,2009-12-06T20:00:00Z,26.6493,-81.8810,1.883,13.86,1111122 
SCCF RECON,ioos:station:SCCF:53:1,2009-12-06T21:00:00Z,26.6493,-81.8810,1.936,13.8,1111122 
SCCF RECON,ioos:station:SCCF:53:1,2009-12-06T22:00:00Z,26.6493,-81.8810,1.991,14.13,1111122 
SCCF RECON,ioos:station:SCCF:53:1,2009-12-06T23:00:00Z,26.6493,-81.8810,2.06,14.65,1111122 
SCCF RECON,ioos:station:SCCF:53:1,2009-12-07T00:00:00Z,26.6493,-81.8810,2.12,14.93,1111122 
SCCF RECON,ioos:station:SCCF:53:1,2009-12-07T01:00:00Z,26.6493,-81.8810,2.16,15.33,1111122 
SCCF RECON,ioos:station:SCCF:53:1,2009-12-07T02:00:00Z,26.6493,-81.8810,2.17,15.5,1111122 
SCCF RECON,ioos:station:SCCF:53:1,2009-12-07T03:00:00Z,26.6493,-81.8810,2.14,15.2,1111122 
SCCF RECON,ioos:station:SCCF:53:1,2009-12-07T04:00:00Z,26.6493,-81.8810,2.09,14.94,1111122 
SCCF RECON,ioos:station:SCCF:53:1,2009-12-07T05:00:00Z,26.6493,-81.8810,2.07,15.5,1111122 
SCCF RECON,ioos:station:SCCF:53:1,2009-12-07T06:00:00Z,26.6493,-81.8810,2.07,15.95,1111122 
SCCF RECON,ioos:station:SCCF:53:1,2009-12-07T07:00:00Z,26.6493,-81.8810,2.13,15.93,1111122 
SCCF RECON,ioos:station:SCCF:53:1,2009-12-07T08:00:00Z,26.6493,-81.8810,2.18,15.75,1111122 
SCCF RECON,ioos:station:SCCF:53:1,2009-12-07T09:00:00Z,26.6493,-81.8810,2.24,15.74,1111122 
SCCF RECON,ioos:station:SCCF:53:1,2009-12-07T10:00:00Z,26.6493,-81.8810,2.29,15.64,1111122 
SCCF RECON,ioos:station:SCCF:53:1,2009-12-07T11:00:00Z,26.6493,-81.8810,2.33,15.73,1111122 
SCCF RECON,ioos:station:SCCF:53:1,2009-12-07T12:00:00Z,26.6493,-81.8810,2.35,15.99,1111122 
SCCF RECON,ioos:station:SCCF:53:1,2009-12-07T13:00:00Z,26.6493,-81.8810,2.32,15.83,1111122 
SCCF RECON,ioos:station:SCCF:53:1,2009-12-07T14:00:00Z,26.6493,-81.8810,2.278,15.37,1111122 
SCCF RECON,ioos:station:SCCF:53:1,2009-12-07T15:00:00Z,26.6493,-81.8810,2.228,15.46,1111122 
SCCF RECON,ioos:station:SCCF:53:1,2009-12-07T16:00:00Z,26.6493,-81.8810,2.162,15.09,1111122 
SCCF RECON,ioos:station:SCCF:53:1,2009-12-07T17:00:00Z,26.6493,-81.8810,2.1,15.34,1111122 
SCCF RECON,ioos:station:SCCF:53:1,2009-12-07T18:00:00Z,26.6493,-81.8810,2.05,15.17,1111122 
SCCF RECON,ioos:station:SCCF:53:1,2009-12-07T19:00:00Z,26.6493,-81.8810,2.002,15.27,1111122 
SCCF RECON,ioos:station:SCCF:53:1,2009-12-07T20:00:00Z,26.6493,-81.8810,2.0,15.13,1111122 
SCCF RECON,ioos:station:SCCF:53:1,2009-12-07T21:00:00Z,26.6493,-81.8810,2.054,15.27,1111122 
SCCF RECON,ioos:station:SCCF:53:1,2009-12-07T22:00:00Z,26.6493,-81.8810,2.1,14.97,1111122 
SCCF RECON,ioos:station:SCCF:53:1,2009-12-07T23:00:00Z,26.6493,-81.8810,2.14,15.53,1111122 
SCCF RECON,ioos:station:SCCF:53:1,2009-12-08T00:00:00Z,26.6493,-81.8810,2.2,15.37,1111122 
SCCF RECON,ioos:station:SCCF:53:1,2009-12-08T01:00:00Z,26.6493,-81.8810,2.23,15.83,1111122 
SCCF RECON,ioos:station:SCCF:53:1,2009-12-08T02:00:00Z,26.6493,-81.8810,2.24,15.51,1111122 
SCCF RECON,ioos:station:SCCF:53:1,2009-12-08T03:00:00Z,26.6493,-81.8810,2.21,15.46,1111122 
SCCF RECON,ioos:station:SCCF:53:1,2009-12-08T04:00:00Z,26.6493,-81.8810,2.16,15.08,1111122 
SCCF RECON,ioos:station:SCCF:53:1,2009-12-08T05:00:00Z,26.6493,-81.8810,2.12,15.33,1111122 
SCCF RECON,ioos:station:SCCF:53:1,2009-12-08T06:00:00Z,26.6493,-81.8810,2.07,15.36,1111122 
SCCF RECON,ioos:station:SCCF:53:1,2009-12-08T07:00:00Z,26.6493,-81.8810,2.05,15.57,1111122 
SCCF RECON,ioos:station:SCCF:53:1,2009-12-08T08:00:00Z,26.6493,-81.8810,2.06,15.76,1111122 
SCCF RECON,ioos:station:SCCF:53:1,2009-12-08T09:00:00Z,26.6493,-81.8810,2.1,15.7,1111122 
SCCF RECON,ioos:station:SCCF:53:1,2009-12-08T10:00:00Z,26.6493,-81.8810,2.154,15.81,1111122 
SCCF RECON,ioos:station:SCCF:53:1,2009-12-08T11:00:00Z,26.6493,-81.8810,2.21,15.73,1111122 
SCCF RECON,ioos:station:SCCF:53:1,2009-12-08T12:00:00Z,26.6493,-81.8810,2.26,15.57,1111122 
SCCF RECON,ioos:station:SCCF:53:1,2009-12-08T13:00:00Z,26.6493,-81.8810,2.3,15.38,1111122 
SCCF RECON,ioos:station:SCCF:53:1,2009-12-08T14:00:00Z,26.6493,-81.8810,2.3,15.78,1111122 
SCCF RECON,ioos:station:SCCF:53:1,2009-12-08T15:00:00Z,26.6493,-81.8810,2.26,15.6,1111122 
SCCF RECON,ioos:station:SCCF:53:1,2009-12-08T16:00:00Z,26.6493,-81.8810,2.2,15.0,1111122 
SCCF RECON,ioos:station:SCCF:53:1,2009-12-08T17:00:00Z,26.6493,-81.8810,2.14,15.5,1111122 
SCCF RECON,ioos:station:SCCF:53:1,2009-12-08T18:00:00Z,26.6493,-81.8810,2.08,15.62,1111122 
SCCF RECON,ioos:station:SCCF:53:1,2009-12-08T19:00:00Z,26.6493,-81.8810,2.04,15.65,1111122 
SCCF RECON,ioos:station:SCCF:53:1,2009-12-08T20:00:00Z,26.6493,-81.8810,2.014,15.68,1111122 
SCCF RECON,ioos:station:SCCF:53:1,2009-12-08T21:00:00Z,26.6493,-81.8810,2.059,15.58,1111122 
SCCF RECON,ioos:station:SCCF:53:1,2009-12-08T22:00:00Z,26.6493,-81.8810,2.11,15.66,1111122 
SCCF RECON,ioos:station:SCCF:53:1,2009-12-08T23:00:00Z,26.6493,-81.8810,2.151,15.22,1111122 
SCCF RECON,ioos:station:SCCF:53:1,2009-12-09T00:00:00Z,26.6493,-81.8810,2.22,15.52,1111122 
SCCF RECON,ioos:station:SCCF:53:1,2009-12-09T01:00:00Z,26.6493,-81.8810,2.27,15.55,1111122 
SCCF RECON,ioos:station:SCCF:53:1,2009-12-09T02:00:00Z,26.6493,-81.8810,2.3,15.61,1111122 
SCCF RECON,ioos:station:SCCF:53:1,2009-12-09T03:00:00Z,26.6493,-81.8810,2.32,15.63,1111122 
SCCF RECON,ioos:station:SCCF:53:1,2009-12-09T04:00:00Z,26.6493,-81.8810,2.287,15.55,1111122 
SCCF RECON,ioos:station:SCCF:53:1,2009-12-09T05:00:00Z,26.6493,-81.8810,2.24,15.46,1111122 
SCCF RECON,ioos:station:SCCF:53:1,2009-12-09T06:00:00Z,26.6493,-81.8810,2.19,15.28,1111122 
SCCF RECON,ioos:station:SCCF:53:1,2009-12-09T07:00:00Z,26.6493,-81.8810,2.14,15.16,1111122 
SCCF RECON,ioos:station:SCCF:53:1,2009-12-09T08:00:00Z,26.6493,-81.8810,2.1,15.18,1111122 
SCCF RECON,ioos:station:SCCF:53:1,2009-12-09T09:00:00Z,26.6493,-81.8810,2.09,15.25,1111122 
SCCF RECON,ioos:station:SCCF:53:1,2009-12-09T10:00:00Z,26.6493,-81.8810,2.13,14.98,1111122 
SCCF RECON,ioos:station:SCCF:53:1,2009-12-09T11:00:00Z,26.6493,-81.8810,2.19,15.45,1111122 
SCCF RECON,ioos:station:SCCF:53:1,2009-12-09T12:00:00Z,26.6493,-81.8810,2.231,15.38,1111122 
SCCF RECON,ioos:station:SCCF:53:1,2009-12-09T13:00:00Z,26.6493,-81.8810,2.29,15.39,1111122 
SCCF RECON,ioos:station:SCCF:53:1,2009-12-09T14:00:00Z,26.6493,-81.8810,2.33,15.33,1111122 
SCCF RECON,ioos:station:SCCF:53:1,2009-12-09T15:00:00Z,26.6493,-81.8810,2.338,15.25,1111122 
SCCF RECON,ioos:station:SCCF:53:1,2009-12-09T16:00:00Z,26.6493,-81.8810,2.301,14.17,1111122 
SCCF RECON,ioos:station:SCCF:53:1,2009-12-09T17:00:00Z,26.6493,-81.8810,2.255,14.13,1111122 
SCCF RECON,ioos:station:SCCF:53:1,2009-12-09T18:00:00Z,26.6493,-81.8810,2.203,14.14,1111122 
SCCF RECON,ioos:station:SCCF:53:1,2009-12-09T19:00:00Z,26.6493,-81.8810,2.155,13.68,1111122 
SCCF RECON,ioos:station:SCCF:53:1,2009-12-09T20:00:00Z,26.6493,-81.8810,2.117,13.5,1111122 
SCCF RECON,ioos:station:SCCF:53:1,2009-12-09T21:00:00Z,26.6493,-81.8810,2.109,13.07,1111122 
SCCF RECON,ioos:station:SCCF:53:1,2009-12-09T22:00:00Z,26.6493,-81.8810,2.154,13.37,1111122 
SCCF RECON,ioos:station:SCCF:53:1,2009-12-09T23:00:00Z,26.6493,-81.8810,2.201,14.04,1111122 
SCCF RECON,ioos:station:SCCF:53:1,2009-12-10T00:00:00Z,26.6493,-81.8810,2.25,14.26,1111122 
SCCF RECON,ioos:station:SCCF:53:1,2009-12-10T01:00:00Z,26.6493,-81.8810,2.31,13.84,1111122 
SCCF RECON,ioos:station:SCCF:53:1,2009-12-10T02:00:00Z,26.6493,-81.8810,2.36,14.0,1111122 
SCCF RECON,ioos:station:SCCF:53:1,2009-12-10T03:00:00Z,26.6493,-81.8810,2.399,14.11,1111122 
SCCF RECON,ioos:station:SCCF:53:1,2009-12-10T04:00:00Z,26.6493,-81.8810,2.39,14.21,1111122 
SCCF RECON,ioos:station:SCCF:53:1,2009-12-10T05:00:00Z,26.6493,-81.8810,2.341,14.01,1111122 
SCCF RECON,ioos:station:SCCF:53:1,2009-12-10T06:00:00Z,26.6493,-81.8810,2.29,13.69,1111122 
SCCF RECON,ioos:station:SCCF:53:1,2009-12-10T07:00:00Z,26.6493,-81.8810,2.231,13.44,1111122 
SCCF RECON,ioos:station:SCCF:53:1,2009-12-10T08:00:00Z,26.6493,-81.8810,2.18,13.02,1111122 
SCCF RECON,ioos:station:SCCF:53:1,2009-12-10T09:00:00Z,26.6493,-81.8810,2.13,12.54,1111122 
SCCF RECON,ioos:station:SCCF:53:1,2009-12-10T10:00:00Z,26.6493,-81.8810,2.09,12.62,1111122 
SCCF RECON,ioos:station:SCCF:53:1,2009-12-10T11:00:00Z,26.6493,-81.8810,2.09,12.87,1111122 
SCCF RECON,ioos:station:SCCF:53:1,2009-12-10T12:00:00Z,26.6493,-81.8810,2.13,13.43,1111122 
SCCF RECON,ioos:station:SCCF:53:1,2009-12-10T13:00:00Z,26.6493,-81.8810,2.177,13.69,1111122 
SCCF RECON,ioos:station:SCCF:53:1,2009-12-10T14:00:00Z,26.6493,-81.8810,2.229,13.76,1111122 
SCCF RECON,ioos:station:SCCF:53:1,2009-12-10T15:00:00Z,26.6493,-81.8810,2.28,13.74,1111122 
SCCF RECON,ioos:station:SCCF:53:1,2009-12-10T16:00:00Z,26.6493,-81.8810,2.31,13.75,1111122 
SCCF RECON,ioos:station:SCCF:53:1,2009-12-10T18:00:00Z,26.6493,-81.8810,2.298,13.58,1111122 
SCCF RECON,ioos:station:SCCF:53:1,2009-12-10T19:00:00Z,26.6493,-81.8810,2.253,13.1,1111122 
SCCF RECON,ioos:station:SCCF:53:1,2009-12-10T20:00:00Z,26.6493,-81.8810,2.212,12.99,1111122 
SCCF RECON,ioos:station:SCCF:53:1,2009-12-10T21:00:00Z,26.6493,-81.8810,2.174,12.73,1111122 
SCCF RECON,ioos:station:SCCF:53:1,2009-12-10T22:00:00Z,26.6493,-81.8810,2.17,12.5,1111122 
SCCF RECON,ioos:station:SCCF:53:1,2009-12-10T23:00:00Z,26.6493,-81.8810,2.209,12.54,1111122 
SCCF RECON,ioos:station:SCCF:53:1,2009-12-11T00:00:00Z,26.6493,-81.8810,2.261,12.94,1111122 
SCCF RECON,ioos:station:SCCF:53:1,2009-12-11T01:00:00Z,26.6493,-81.8810,2.316,13.37,1111122 
SCCF RECON,ioos:station:SCCF:53:1,2009-12-11T02:00:00Z,26.6493,-81.8810,2.35,13.45,1111122 
SCCF RECON,ioos:station:SCCF:53:1,2009-12-11T03:00:00Z,26.6493,-81.8810,2.366,13.65,1111122 
SCCF RECON,ioos:station:SCCF:53:1,2009-12-11T04:00:00Z,26.6493,-81.8810,2.34,13.37,1111122 
SCCF RECON,ioos:station:SCCF:53:1,2009-12-11T05:00:00Z,26.6493,-81.8810,2.288,12.98,1111122 
SCCF RECON,ioos:station:SCCF:53:1,2009-12-11T06:00:00Z,26.6493,-81.8810,2.23,12.45,1111122 
SCCF RECON,ioos:station:SCCF:53:1,2009-12-11T07:00:00Z,26.6493,-81.8810,2.181,11.47,1111122 
SCCF RECON,ioos:station:SCCF:53:1,2009-12-11T08:00:00Z,26.6493,-81.8810,2.127,10.95,1111122 
SCCF RECON,ioos:station:SCCF:53:1,2009-12-11T09:00:00Z,26.6493,-81.8810,2.072,10.49,1111122 
SCCF RECON,ioos:station:SCCF:53:1,2009-12-11T10:00:00Z,26.6493,-81.8810,2.024,10.18,1111122 
SCCF RECON,ioos:station:SCCF:53:1,2009-12-11T11:00:00Z,26.6493,-81.8810,1.979,9.79,1111122 
SCCF RECON,ioos:station:SCCF:53:1,2009-12-11T12:00:00Z,26.6493,-81.8810,1.941,9.69,1111122 
SCCF RECON,ioos:station:SCCF:53:1,2009-12-11T13:00:00Z,26.6493,-81.8810,1.939,9.29,1111122 
SCCF RECON,ioos:station:SCCF:53:1,2009-12-11T14:00:00Z,26.6493,-81.8810,1.949,9.49,1111122 
SCCF RECON,ioos:station:SCCF:53:1,2009-12-11T15:00:00Z,26.6493,-81.8810,1.999,9.95,1111122 
SCCF RECON,ioos:station:SCCF:53:1,2009-12-11T16:00:00Z,26.6493,-81.8810,2.025,10.53,1111122 
SCCF RECON,ioos:station:SCCF:53:1,2009-12-11T17:00:00Z,26.6493,-81.8810,2.039,11.29,1111122 
SCCF RECON,ioos:station:SCCF:53:1,2009-12-11T18:00:00Z,26.6493,-81.8810,2.043,12.42,1111122 
SCCF RECON,ioos:station:SCCF:53:1,2009-12-11T19:00:00Z,26.6493,-81.8810,2.028,12.53,1111122 